Probability
0 0 0 0 0 0 0 0 0 0 0 0 0 0 3 6 26 90 97 100 100 100 97 81 74 84 90 87 90 97 90 68 35 6 3 0 0 0 0 0 10 65 84 100
0 0 0 0 0 0 0 0 0 0 0 0 0 0 0 6 16 68 100 100 100 100 100 100 94 87 84 71 77 77 71 61 45 19 3 0 0 0 0 0 10 26 39 77
0 0 0 0 0 0 0 0 0 0 0 0 0 0 0 26 74 90 94 94 97 97 97 97 94 87 77 61 52 45 35 45 48 52 29 3 3 0 0 0 3 3 16 39
0 0 0 0 0 0 0 0 0 0 0 0 0 0 0 13 55 71 81 68 68 71 68 61 58 55 32 10 10 6 10 16 39 26 19 0 0 0 0 0 0 0 0 6
0 0 0 0 0 0 0 0 0 0 0 0 0 0 0 6 13 32 32 23 23 26 29 29 16 0 0 0 0 0 0 6 13 10 0 0 0 0 0 0 0 0 0 0
0 0 0 0 0 0 0 0 0 0 0 0 0 0 0 0 3 0 0 3 0 0 0 0 0 0 0 0 0 0 0 0 0 0 0 0 0 0 0 0 0 0 0 0
0 0 0 0 0 0 0 0 0 0 0 0 0 0 0 0 0 0 0 0 0 0 0 0 0 0 0 0 0 0 0 0 0 0 0 0 0 0 0 0 0 0 0 0
0 0 0 0 0 0 0 0 0 0 0 0 0 0 0 0 0 0 0 0 0 0 0 0 0 0 0 0 0 0 0 0 0 0 0 0 0 0 0 0 0 0 0 0
0 0 0 0 0 0 0 0 0 0 0 0 0 0 0 0 0 0 0 0 0 0 0 0 0 0 0 0 0 0 0 0 0 0 0 0 0 0 0 0 0 0 0 0
0 0 0 0 0 0 0 0 0 0 0 0 0 0 0 0 0 0 0 0 0 0 0 0 0 0 0 0 0 0 0 0 0 0 0 0 0 0 0 0 0 0 0 0
0 0 0 0 0 0 0 0 0 0 0 0 0 0 0 0 0 0 0 0 0 0 0 0 0 0 0 0 0 0 0 0 0 0 0 0 0 0 0 0 0 0 0 0
0 0 0 0 0 0 0 0 0 0 0 0 0 0 0 0 0 0 0 0 0 0 0 0 0 0 0 0 0 0 0 0 0 0 0 0 0 0 0 0 0 0 0 0
0 0 0 0 0 0 0 0 0 0 0 0 0 0 0 0 0 0 0 0 0 0 0 0 0 0 0 0 0 0 0 0 0 0 0 0 0 0 0 0 0 0 0 0
0 0 0 0 0 0 0 0 0 0 0 0 0 0 0 0 0 0 0 0 0 0 0 0 0 0 0 0 0 0 0 0 0 0 0 0 0 0 0 0 0 0 0 0
0 0 0 0 0 0 0 0 0 0 0 0 0 0 0 0 0 0 0 0 0 0 0 0 0 0 0 0 0 0 0 0 0 0 0 0 0 0 0 0 0 0 0 0
0 0 0 0 0 0 0 0 0 0 0 0 0 0 0 0 0 0 0 0 0 0 0 0 0 0 0 0 0 0 0 0 0 0 0 0 0 0 0 0 0 0 0 0
0 0 0 0 0 0 0 0 0 0 0 0 0 0 0 0 0 0 0 0 0 0 0 0 0 0 0 0 0 0 0 0 0 0 0 0 0 0 0 0 0 0 0 0
0 0 0 0 0 0 0 0 0 0 0 0 0 0 0 0 0 0 0 0 0 0 0 0 0 0 0 0 0 0 0 0 0 0 0 0 0 0 0 0 0 0 0 0
0 0 0 0 0 0 0 0 0 0 0 0 0 0 0 0 0 0 0 0 0 0 0 0 0 0 0 0 0 0 0 0 0 0 0 0 0 0 0 0 0 0 0 0
0 0 0 0 0 0 0 0 0 0 0 0 0 0 0 0 0 0 0 0 0 0 0 0 0 0 0 0 0 0 0 0 0 0 0 0 0 0 0 0 0 0 0 0
0 0 0 0 0 0 0 0 0 0 0 0 0 0 0 0 0 0 0 0 0 0 0 0 0 0 0 0 0 0 0 0 0 0 0 0 0 0 0 0 0 0 0 0
0 0 0 0 0 0 0 0 0 0 0 0 0 0 0 0 0 0 0 0 0 0 0 0 0 0 0 0 0 0 0 0 0 0 0 0 0 0 0 0 0 0 0 0
0 0 0 0 0 0 0 0 0 0 0 0 0 0 0 0 0 0 0 0 0 0 0 0 0 0 0 0 0 0 0 0 0 0 0 0 0 0 0 0 0 0 0 0
0 0 0 0 0 0 0 0 0 0 0 0 0 0 0 0 0 0 0 0 0 0 0 0 0 0 0 0 0 0 0 0 0 0 0 0 0 0 0 0 0 0 0 0
0 0 0 0 0 0 0 0 0 0 0 0 0 0 0 0 0 0 0 0 0 0 0 0 0 0 0 0 0 0 0 0 0 0 0 0 0 0 0 0 0 0 0 0
0 0 0 0 0 0 0 0 0 0 0 0 0 0 0 0 0 0 0 0 0 0 0 0 0 0 0 0 0 0 0 0 0 0 0 0 0 0 0 0 0 0 0 0
Height
5878 5880 5881 5882 5884 5886 5887 5888 5889 5889 5888 5889 5889 5890 5890 5888 5887 5886 5885 5884 5883 5884 5883 5880 5876 5871 5866 5862 5859 5858 5857 5857 5855 5853 5850 5848 5845 5843 5841 5839 5837 5835 5833 5831
5876 5877 5879 5879 5880 5882 5882 5883 5883 5884 5884 5885 5885 5885 5885 5884 5884 5881 5879 5877 5877 5876 5875 5872 5870 5866 5862 5857 5853 5850 5847 5845 5844 5842 5840 5838 5836 5833 5831 5828 5827 5825 5823 5821
5875 5876 5876 5877 5878 5878 5878 5878 5879 5880 5880 5880 5880 5879 5878 5877 5877 5876 5874 5873 5872 5871 5869 5866 5863 5859 5856 5852 5849 5846 5842 5839 5836 5833 5831 5828 5826 5824 5822 5820 5818 5816 5814 5812
5872 5873 5874 5874 5875 5874 5874 5874 5875 5876 5877 5876 5876 5873 5873 5872 5871 5869 5868 5867 5866 5864 5862 5860 5857 5854 5850 5847 5843 5840 5837 5834 5830 5826 5823 5820 5818 5816 5813 5811 5809 5807 5805 5803
5870 5870 5871 5871 5871 5870 5870 5870 5869 5869 5869 5869 5869 5867 5867 5865 5863 5862 5862 5861 5860 5859 5857 5854 5851 5847 5844 5841 5837 5832 5828 5825 5822 5818 5815 5812 5808 5806 5804 5802 5800 5798 5796 5794
5868 5868 5869 5868 5868 5867 5867 5866 5865 5864 5863 5863 5862 5861 5861 5858 5857 5857 5856 5856 5855 5853 5851 5847 5844 5840 5836 5832 5828 5824 5820 5816 5812 5808 5805 5802 5799 5796 5794 5792 5790 5789 5787 5784
5868 5867 5867 5866 5866 5865 5864 5863 5862 5861 5859 5859 5857 5856 5856 5854 5853 5852 5851 5849 5847 5845 5843 5840 5836 5833 5829 5825 5820 5817 5813 5808 5803 5798 5794 5791 5788 5785 5782 5781 5779 5777 5776 5773
5866 5866 5865 5864 5864 5863 5861 5860 5860 5859 5857 5856 5853 5851 5851 5849 5847 5845 5844 5842 5840 5838 5836 5831 5827 5823 5820 5816 5812 5809 5805 5800 5795 5790 5784 5780 5776 5772 5770 5768 5766 5765 5763 5762
5865 5865 5864 5862 5861 5860 5859 5857 5857 5856 5854 5852 5850 5847 5845 5843 5842 5839 5837 5836 5835 5832 5827 5822 5818 5815 5812 5808 5805 5801 5797 5792 5787 5781 5776 5770 5765 5761 5758 5755 5753 5752 5750 5749
5863 5863 5861 5859 5858 5857 5857 5855 5854 5852 5850 5849 5847 5844 5841 5838 5836 5834 5831 5829 5827 5824 5820 5817 5814 5811 5807 5803 5800 5796 5791 5786 5780 5774 5768 5762 5757 5752 5748 5745 5743 5740 5738 5736
5861 5861 5860 5857 5855 5854 5853 5852 5850 5849 5847 5844 5843 5844 5838 5834 5831 5828 5826 5823 5821 5818 5815 5812 5808 5806 5803 5798 5794 5789 5784 5779 5773 5767 5761 5755 5749 5744 5740 5737 5734 5730 5727 5725
5860 5859 5858 5856 5853 5851 5850 5848 5846 5844 5842 5840 5838 5841 5834 5829 5826 5823 5821 5818 5815 5811 5808 5805 5802 5799 5795 5791 5786 5781 5776 5772 5766 5760 5754 5748 5742 5737 5733 5729 5726 5722 5718 5715
5858 5857 5856 5854 5853 5850 5847 5845 5842 5839 5837 5835 5833 5834 5827 5823 5820 5818 5816 5813 5809 5805 5801 5797 5793 5789 5785 5781 5776 5771 5767 5763 5758 5752 5746 5741 5735 5730 5726 5723 5719 5716 5712 5708
5856 5855 5854 5852 5848 5845 5843 5841 5838 5835 5832 5830 5828 5826 5820 5817 5815 5813 5809 5805 5801 5797 5792 5787 5783 5778 5773 5769 5766 5762 5758 5754 5749 5744 5739 5734 5728 5723 5719 5716 5713 5710 5706 5703
5854 5852 5849 5847 5843 5840 5838 5836 5833 5830 5827 5824 5821 5817 5814 5811 5808 5804 5799 5795 5791 5786 5780 5775 5771 5766 5762 5758 5754 5751 5748 5744 5741 5736 5732 5727 5722 5716 5712 5709 5707 5704 5701 5698
5850 5848 5845 5843 5839 5836 5833 5829 5826 5823 5820 5817 5814 5811 5807 5803 5798 5793 5789 5784 5779 5774 5768 5764 5759 5755 5750 5746 5742 5739 5736 5733 5730 5727 5723 5720 5715 5710 5705 5703 5700 5697 5695 5693
5846 5844 5841 5838 5834 5830 5826 5823 5820 5817 5813 5810 5806 5804 5798 5793 5788 5783 5777 5771 5765 5760 5755 5750 5746 5741 5736 5732 5729 5726 5724 5721 5719 5716 5713 5710 5707 5703 5699 5696 5694 5692 5689 5688
5843 5839 5834 5830 5828 5824 5821 5815 5813 5808 5804 5800 5797 5792 5787 5781 5774 5768 5762 5755 5749 5744 5739 5734 5729 5725 5721 5717 5714 5713 5711 5709 5707 5704 5702 5700 5697 5695 5692 5689 5687 5686 5684 5682
5835 5831 5826 5823 5819 5817 5814 5810 5805 5799 5794 5791 5786 5780 5774 5768 5760 5753 5746 5739 5732 5726 5720 5715 5710 5706 5703 5700 5698 5697 5696 5695 5694 5692 5690 5689 5687 5685 5683 5681 5681 5680 5678 5676
5828 5824 5820 5816 5811 5808 5806 5801 5794 5788 5783 5779 5772 5766 5759 5751 5744 5738 5730 5721 5714 5707 5701 5694 5689 5684 5681 5679 5677 5677 5677 5677 5677 5677 5677 5677 5677 5675 5674 5673 5673 5673 5671 5670
5821 5817 5813 5808 5803 5798 5793 5789 5783 5778 5773 5765 5757 5750 5742 5733 5725 5717 5709 5701 5693 5686 5679 5672 5665 5660 5656 5653 5651 5651 5653 5655 5658 5659 5661 5663 5663 5663 5663 5663 5665 5665 5664 5664
5814 5810 5806 5800 5795 5791 5784 5778 5772 5766 5757 5750 5742 5733 5724 5715 5705 5696 5687 5679 5671 5663 5655 5646 5638 5633 5629 5625 5625 5625 5626 5629 5634 5639 5643 5646 5648 5650 5651 5653 5656 5658 5657 5657
5807 5802 5797 5791 5786 5778 5771 5765 5757 5750 5743 5734 5724 5714 5703 5693 5683 5673 5664 5655 5646 5638 5630 5621 5614 5609 5605 5600 5597 5598 5600 5603 5609 5616 5622 5628 5632 5636 5639 5642 5646 5649 5650 5651
5801 5794 5787 5780 5774 5767 5761 5752 5743 5734 5725 5715 5703 5692 5680 5669 5659 5649 5640 5631 5623 5616 5609 5602 5596 5591 5587 5581 5577 5575 5574 5577 5584 5592 5600 5608 5615 5621 5626 5631 5636 5641 5643 5644
5793 5787 5780 5773 5765 5756 5748 5737 5727 5717 5706 5694 5683 5671 5659 5647 5636 5626 5616 5609 5602 5597 5593 5588 5582 5577 5572 5567 5563 5559 5557 5556 5559 5568 5577 5588 5598 5606 5613 5619 5625 5631 5635 5637
5785 5779 5771 5762 5752 5742 5731 5719 5707 5695 5684 5672 5659 5648 5637 5623 5610 5601 5593 5588 5585 5582 5577 5572 5567 5561 5556 5552 5549 5546 5543 5541 5542 5548 5557 5568 5581 5591 5600 5607 5614 5621 5626 5629
Wind_Speed
13 15 15 15 14 15 15 15 14 15 15 17 19 22 23 26 29 34 36 36 34 31 30 32 34 37 38 39 40 39 37 35 36 36 37 38 40 41 41 41 41 42 42 42
11 13 11 10 10 11 14 18 21 21 22 23 26 28 30 31 32 35 36 35 34 31 31 33 35 35 33 33 36 39 38 37 36 36 36 36 37 39 40 40 40 40 40 39
11 9 8 7 8 11 14 18 22 26 25 26 29 30 32 34 35 35 34 33 31 31 33 34 35 32 32 33 34 35 36 37 37 38 36 35 34 34 34 35 36 36 35 35
8 7 7 8 11 15 18 19 19 22 29 33 34 36 36 35 34 32 29 27 26 29 32 35 34 33 33 34 35 34 34 35 36 37 38 39 38 36 35 35 35 36 37 36
7 9 10 10 12 15 17 17 18 18 20 25 30 34 30 26 24 21 20 20 23 28 30 30 31 32 33 34 35 37 39 39 39 40 41 42 43 42 40 39 39 39 39 40
6 6 6 7 9 11 11 11 11 13 14 16 19 23 19 17 17 17 19 21 24 27 29 29 30 30 31 31 33 35 37 40 41 43 43 44 44 44 43 43 42 41 41 41
5 6 8 8 6 7 8 8 7 7 10 12 15 17 16 16 17 19 21 23 25 27 28 29 29 27 26 27 28 31 33 36 39 42 44 45 45 45 45 44 44 43 42 41
7 7 9 9 10 9 10 11 10 8 8 9 13 16 16 17 20 23 24 25 26 27 27 28 29 28 28 29 30 31 32 34 36 38 40 42 43 44 45 45 46 45 44 42
8 8 11 13 12 11 10 12 12 11 10 10 13 18 20 22 24 25 26 25 24 25 27 30 32 33 33 34 35 36 35 35 36 37 38 39 40 42 42 43 45 46 46 45
9 8 10 14 14 11 10 10 12 12 13 12 11 16 21 24 26 26 27 27 27 27 28 30 32 33 34 36 37 37 37 37 36 36 37 37 37 38 39 40 41 42 43 44
13 9 8 12 13 13 11 9 10 11 13 13 10 8 16 23 26 28 29 28 29 29 30 32 33 33 33 35 37 38 39 39 38 38 37 35 34 34 35 36 38 39 40 41
14 12 10 13 15 16 15 15 15 16 16 17 16 10 17 23 27 29 30 32 33 35 36 37 37 37 36 36 38 40 40 40 40 38 38 37 34 32 32 32 32 33 34 34
13 14 12 13 17 18 18 18 18 19 19 19 20 19 23 26 29 32 34 36 37 39 41 42 43 43 42 41 40 42 41 41 40 40 39 39 36 32 30 29 28 28 27 28
12 14 15 16 18 20 20 20 21 23 24 23 22 24 29 30 32 35 37 38 39 42 45 47 46 46 47 46 44 44 44 43 41 40 39 39 38 33 29 27 26 25 23 22
14 15 17 18 21 23 22 21 23 26 27 28 28 30 32 34 36 39 42 44 46 48 49 50 50 50 49 49 49 47 46 44 41 39 38 38 38 34 29 26 25 23 20 19
19 19 19 20 22 24 24 26 28 29 30 31 32 33 35 38 41 44 46 49 50 51 51 52 53 53 52 51 50 50 49 46 42 40 38 36 37 34 29 26 24 22 20 17
22 22 22 21 22 23 27 28 28 29 30 32 34 35 37 39 43 47 50 52 53 54 55 56 56 56 55 53 53 52 50 47 43 40 38 36 35 33 29 27 25 23 20 18
23 24 25 25 26 28 29 31 31 33 35 36 38 39 41 44 48 51 55 58 59 60 61 61 60 60 59 59 58 56 52 47 43 40 38 35 33 32 28 27 26 24 21 18
28 29 30 31 32 33 34 34 35 37 38 39 41 43 46 49 54 57 59 63 66 66 66 65 64 64 64 65 65 62 56 49 44 40 38 36 33 30 28 26 25 23 21 19
31 32 32 34 36 38 39 39 39 41 41 40 43 47 52 54 55 59 63 67 71 72 72 70 70 70 71 71 70 66 59 53 48 43 39 37 34 31 29 28 25 23 22 20
33 34 35 38 40 42 42 40 41 43 46 47 51 56 60 63 65 68 71 74 76 77 77 78 79 80 80 76 71 66 60 55 52 48 43 41 37 32 30 28 25 23 21 20
37 38 38 39 40 40 40 42 41 45 49 54 58 62 66 69 72 74 77 79 81 82 83 83 81 78 74 70 67 63 59 55 54 51 45 40 37 33 30 28 26 24 22 20
37 37 37 38 39 41 43 45 47 51 55 58 62 66 70 74 77 80 82 83 82 81 77 70 64 58 56 57 56 56 57 56 55 54 51 45 38 34 32 30 28 26 23 20
33 33 35 37 40 43 46 49 53 56 60 63 67 72 76 79 82 84 84 81 75 66 55 47 45 46 47 48 47 45 45 51 56 56 54 48 42 37 35 33 31 27 24 21
31 33 36 40 44 48 51 55 59 63 66 69 71 74 79 83 83 80 73 65 54 43 41 43 46 47 48 46 42 41 40 42 50 56 56 51 44 39 37 36 33 30 26 23
34 37 42 46 50 54 59 63 67 71 73 76 77 77 76 72 67 61 54 47 42 42 44 46 47 48 48 47 45 44 42 41 43 52 56 52 46 41 39 37 34 32 28 25
Wind_Direction
223 226 227 231 228 225 229 227 221 226 230 236 243 246 248 259 272 281 284 286 289 295 302 304 304 303 301 299 296 292 288 286 284 283 281 281 280 280 280 279 278 277 277 276
205 212 215 215 212 210 214 220 216 221 230 231 236 243 248 255 269 281 285 288 291 297 301 302 302 301 302 301 298 295 294 293 291 289 286 283 280 279 278 277 277 277 278 277
227 225 219 222 227 224 228 235 228 228 238 247 251 258 265 273 279 282 284 286 288 292 297 300 302 298 299 301 298 293 293 295 296 295 292 288 285 282 280 280 281 282 281 280
261 262 257 250 247 249 252 259 257 244 240 242 252 259 263 269 274 278 280 282 287 296 302 301 298 292 293 297 297 295 292 293 295 295 293 291 288 285 283 282 283 284 285 284
261 268 273 270 262 261 267 273 271 265 254 247 245 254 263 269 271 274 279 288 295 298 299 299 296 291 291 293 294 296 298 298 297 295 293 291 289 287 286 285 284 285 285 284
257 274 292 296 280 272 277 283 283 282 275 260 253 256 260 269 278 286 291 292 292 294 299 303 304 302 300 299 297 296 296 296 295 293 290 288 287 286 285 284 284 283 282 282
320 295 295 295 287 292 292 298 303 287 277 276 275 273 270 275 279 285 292 294 297 303 307 306 305 308 310 310 310 309 307 305 301 296 292 289 287 286 284 283 283 284 284 284
353 335 312 294 285 297 301 307 308 302 292 281 280 277 278 279 286 294 297 297 299 302 306 310 315 324 327 327 327 326 324 319 312 307 302 295 290 288 286 284 284 284 286 286
354 341 315 306 306 306 302 309 314 314 306 284 271 277 281 287 292 294 295 297 303 312 319 323 325 328 329 329 331 333 334 331 325 319 314 307 299 293 290 289 288 287 287 287
325 319 298 294 302 305 293 293 302 308 306 292 276 279 286 292 293 298 308 315 319 321 321 320 321 323 323 322 323 326 329 331 330 326 322 316 308 300 295 293 293 292 290 289
319 326 310 300 303 308 315 310 304 306 315 314 308 296 292 290 295 303 311 316 317 316 315 316 317 318 317 315 314 316 321 324 325 326 327 323 314 304 298 295 294 293 292 290
310 315 310 301 305 311 313 316 312 307 309 309 304 298 289 288 293 299 306 311 314 313 312 312 311 311 311 310 310 311 314 316 317 320 324 325 319 309 302 298 296 296 295 293
303 306 304 297 299 302 302 304 304 301 299 296 297 299 291 289 295 302 308 309 308 307 305 304 305 306 307 308 307 307 308 310 312 315 319 322 320 312 305 300 301 301 300 298
300 303 304 300 295 292 294 295 293 290 290 289 286 286 287 296 301 302 302 302 299 298 299 300 302 304 304 305 304 303 304 306 308 310 313 318 319 312 304 300 301 303 302 299
311 308 305 302 298 298 298 292 287 284 283 282 283 284 291 295 297 298 299 301 301 300 300 300 300 300 299 299 299 300 302 303 304 305 308 313 316 311 302 298 299 303 305 301
317 315 314 310 303 304 301 295 290 287 285 283 284 288 293 296 297 299 301 302 300 299 298 298 298 298 296 295 297 299 302 301 300 301 303 306 309 308 299 295 297 303 307 304
318 314 313 312 307 305 303 301 300 298 294 291 290 292 295 296 297 295 293 293 294 295 295 295 297 297 295 295 297 299 300 299 296 296 297 298 301 303 294 290 294 300 302 301
317 314 314 315 313 314 312 311 310 307 302 301 300 299 297 294 294 293 292 292 294 295 294 293 293 293 291 291 293 295 295 292 289 289 290 289 291 293 288 284 288 294 294 294
319 318 316 315 313 313 311 312 313 308 303 303 302 301 298 295 295 294 292 291 292 294 293 291 289 289 288 287 288 289 288 284 280 281 282 281 281 282 278 275 279 285 286 287
317 314 313 314 314 314 312 315 312 307 305 303 298 295 293 291 290 289 289 291 293 294 294 292 290 289 289 288 288 286 282 276 271 270 271 272 271 270 267 265 269 273 277 279
313 313 314 314 313 312 314 312 308 304 302 298 294 293 292 292 290 289 290 292 293 293 293 291 289 289 290 290 287 283 276 269 264 261 262 261 258 257 257 257 258 261 265 268
311 312 313 312 310 308 306 302 298 293 290 289 290 291 292 292 291 291 292 292 292 292 292 292 291 290 290 288 283 277 270 263 257 253 251 249 246 245 247 249 249 252 254 256
311 314 313 311 308 306 305 304 302 299 298 297 296 294 293 293 293 293 294 295 295 296 297 296 294 294 293 292 288 280 268 257 251 245 242 240 236 237 240 242 240 243 245 247
319 316 312 310 310 310 310 309 307 305 302 299 297 296 295 294 294 294 295 297 297 297 295 295 296 298 298 297 296 293 279 259 246 240 236 235 232 229 233 235 233 235 238 238
321 317 316 317 317 316 315 312 310 308 305 302 299 295 292 293 294 296 296 295 291 286 287 290 293 293 294 296 297 296 290 270 247 237 232 229 225 223 226 228 227 227 230 228
321 322 324 324 323 321 318 316 313 310 307 305 302 301 301 301 300 299 296 292 285 284 287 289 291 291 290 290 289 291 290 279 255 238 231 224 217 216 219 223 221 220 222 221